sat.trackr.live / text

‹ back to catalog

STARLINK-5500

NORAD 55634 · 2023-021G

PAYLOAD ACTIVE UNKNOWN

§ Identity

Operator
Country
US
Launch date
2023-02-17
Launch site
AFWTR
Launch vehicle
Mass (kg)
RCS (m²)

Purposes: comms

External: N2YO · Heavens-Above · Gunter

§ Orbital elements

Epoch: 2026-05-24T23:13:18.124896Z

Period
96.11 min
Inclination
69.9997°
Eccentricity
0.0003606
Mean motion
14.98332547 rev/d
Perigee alt
569.5 km
Apogee alt
574.6 km
Semi-major
6,950.2 km
B*
1.3430e-4
RAAN
12.1441°
Arg perigee
265.4024°
Mean anomaly
94.6723°
Rev number
17,971

§ Raw data

STARLINK-55001 55634U 23021G   26144.96757089  .00001510  00000+0  13430-3 0  99992 55634  69.9997  12.1441 0003606 265.4024  94.6723 14.98332547179717

JSON: /api/v1/satellites/55634 · /tle

For live sub-satellite position, see the globe view (requires WebGL).

§ Visibility from observer

Set your observer location to see the next 7 days of passes ≥ 10°. The values pass through the URL so the page stays shareable.

No JS? Fill the form by hand. The geolocation button needs JavaScript.